Date String (YYYY-MM-DD hh:mm:ss) UTC,Instrument flags,absolute air pressure of the measurement (hPa),sample flow rate (lpm),inlet stack bypass flow (lpm),air temperature of the measurement (°C),ambient temperature measured by the external sensor (°C),aerosol sample conditioner tube jacket temperature (°C),OPC LED temperature (°C),internal box temperature (°C),relative humidity of the measurement (%),span deviation,mass concentration of particles derived from Lorenz-Mie calculation of OPC scattering (μg/m³),mass concentration of particles derived from Lorenz-Mie calculation of OPC scattering (μg/m³),mass concentration of particles derived from Lorenz-Mie calculation of OPC scattering (μg/m³)
DateTimeUTC,F1_M11,P_M11,Q1_M11,Q2_M11,T1_M11,T2_M11,T3_M11,T4_M11,T5_M11,U1_M11,ZSPAN_M11,X0_M11,X2_M11,X1_M11
2024-03-08 01:00:00,SystemResetWarning,0823.8,5.00,000.00,018.3,017.5,000.0,026.8,020.0,29.2,0002.2,0014.91,0008.52,0007.70
2024-03-08 01:01:00,SystemResetWarning,0823.8,5.00,000.00,018.3,017.5,000.0,026.8,020.0,29.2,0002.1,0014.57,0008.48,0007.68
2024-03-08 01:02:00,SystemResetWarning,0823.8,5.00,000.00,018.3,017.5,000.0,026.8,020.0,29.3,0002.0,0014.72,0008.47,0007.66
2024-03-08 01:03:00,SystemResetWarning,0823.8,5.00,000.00,018.3,017.5,000.0,026.8,020.0,29.8,0001.9,0014.84,0008.52,0007.67
2024-03-08 01:04:00,SystemResetWarning,0823.8,5.00,000.00,018.3,017.5,000.0,026.8,020.0,29.6,0002.2,0014.82,0008.50,0007.68
2024-03-08 01:05:00,SystemResetWarning,0823.9,5.00,000.00,018.3,017.6,000.0,026.8,020.0,29.5,0001.9,0014.89,0008.49,0007.66
2024-03-08 01:06:00,SystemResetWarning,0823.9,5.00,000.00,018.3,017.6,000.0,026.8,020.0,29.5,0002.0,0014.98,0008.52,0007.67
2024-03-08 01:07:00,SystemResetWarning,0823.9,5.01,000.00,018.3,017.6,000.0,026.8,020.0,29.4,0002.0,0015.14,0008.57,0007.66
2024-03-08 01:08:00,SystemResetWarning,0823.9,5.01,000.00,018.3,017.6,000.0,026.8,020.0,29.4,0001.9,0015.69,0008.52,0007.64
2024-03-08 01:09:00,SystemResetWarning,0823.9,4.99,000.00,018.3,017.6,000.0,026.8,020.0,29.4,0001.9,0015.34,0008.50,0007.63
2024-03-08 01:10:00,SystemResetWarning,0824.0,5.00,000.00,018.3,017.6,000.0,026.8,020.0,29.2,0001.9,0015.52,0008.44,0007.62
2024-03-08 01:11:00,SystemResetWarning,0823.9,5.00,000.00,018.3,017.6,000.0,026.8,020.0,29.1,0001.9,0014.98,0008.42,0007.60
2024-03-08 01:12:00,SystemResetWarning,0824.0,4.99,000.00,018.3,017.5,000.0,026.8,020.0,29.2,0001.9,0014.85,0008.43,0007.59
2024-03-08 01:13:00,SystemResetWarning,0824.0,5.00,000.00,018.3,017.5,000.0,026.8,020.0,29.2,0002.0,0014.72,0008.44,0007.56
2024-03-08 01:14:00,SystemResetWarning,0823.9,5.00,000.00,018.3,017.5,000.0,026.8,020.0,29.1,0001.9,0014.14,0008.33,0007.47
2024-03-08 01:15:00,SystemResetWarning,0824.0,5.00,000.00,018.3,017.5,000.0,026.9,020.0,29.1,0001.6,0014.15,0008.25,0007.39
2024-03-08 01:16:00,SystemResetWarning,0824.0,5.00,000.00,018.3,017.5,000.0,026.9,020.0,29.0,0001.4,0013.97,0008.17,0007.34
2024-03-08 01:17:00,SystemResetWarning,0824.0,5.01,000.00,018.2,017.4,000.0,026.9,020.0,29.0,0001.3,0014.02,0008.08,0007.27
2024-03-08 01:18:00,SystemResetWarning,0824.0,5.00,000.00,018.2,017.4,000.0,026.9,020.0,28.9,0001.5,0013.95,0007.97,0007.20
2024-03-08 01:19:00,SystemResetWarning,0824.0,5.00,000.00,018.2,017.3,000.0,026.9,020.0,28.9,0001.8,0012.93,0007.89,0007.16
2024-03-08 01:20:00,SystemResetWarning,0824.1,5.01,000.00,018.2,017.4,000.0,026.9,020.1,28.9,0001.5,0012.50,0007.79,0007.11
2024-03-08 01:21:00,SystemResetWarning,0824.1,5.00,000.00,018.4,018.1,000.0,027.0,020.4,28.7,0001.3,0012.14,0007.74,0007.08
2024-03-08 01:22:00,SystemResetWarning,0824.1,4.99,000.00,018.6,018.9,000.0,027.1,020.9,28.3,0001.3,0011.74,0007.66,0007.02
2024-03-08 01:23:00,SystemResetWarning,0824.1,4.99,000.00,018.8,019.0,000.0,027.1,021.0,27.9,0001.4,0011.53,0007.59,0007.00
2024-03-08 01:24:00,SystemResetWarning,0824.2,5.00,000.00,018.8,018.8,000.0,027.1,020.8,27.8,0001.4,0011.34,0007.52,0006.97
2024-03-08 01:25:00,SystemResetWarning,0824.2,5.01,000.00,018.8,018.6,000.0,027.1,020.7,27.8,0001.6,0011.45,0007.53,0007.01
2024-03-08 01:26:00,SystemResetWarning,0824.1,4.99,000.00,018.7,018.4,000.0,027.1,020.6,27.8,0001.8,0011.47,0007.55,0007.02
2024-03-08 01:27:00,SystemResetWarning,0824.1,5.00,000.00,018.7,018.2,000.0,027.1,020.5,27.8,0001.8,0011.57,0007.58,0007.00
2024-03-08 01:28:00,SystemResetWarning,0824.1,4.99,000.00,018.7,018.1,000.0,027.1,020.4,27.8,0002.0,0011.36,0007.45,0006.86
2024-03-08 01:29:00,SystemResetWarning,0824.1,5.00,000.00,018.7,018.0,000.0,027.1,020.3,27.8,0001.9,0010.96,0007.27,0006.70
2024-03-08 01:30:00,SystemResetWarning,0824.2,5.00,000.00,018.6,017.9,000.0,027.1,020.3,27.8,0001.7,0010.86,0007.17,0006.58
2024-03-08 01:31:00,SystemResetWarning,0824.2,5.00,000.00,018.6,017.9,000.0,027.1,020.3,27.8,0002.0,0010.66,0007.02,0006.42
2024-03-08 01:32:00,SystemResetWarning,0824.2,5.01,000.00,018.6,017.8,000.0,027.1,020.2,27.7,0001.6,0010.52,0006.76,0006.15
2024-03-08 01:33:00,SystemResetWarning,0824.2,5.01,000.00,018.5,017.8,000.0,027.1,020.2,27.7,0001.9,0010.89,0006.42,0005.82
2024-03-08 01:34:00,SystemResetWarning,0824.3,5.00,000.00,018.5,017.7,000.0,027.1,020.2,27.6,0002.1,0010.44,0006.03,0005.45
2024-03-08 01:35:00,SystemResetWarning,0824.3,5.00,000.00,018.5,017.7,000.0,027.0,020.2,27.6,0002.0,0010.60,0005.64,0005.07
2024-03-08 01:36:00,SystemResetWarning,0824.3,4.99,000.00,018.5,017.6,000.0,027.0,020.1,27.6,0001.9,0010.39,0005.27,0004.73
2024-03-08 01:37:00,SystemResetWarning,0824.3,4.99,000.00,018.4,017.6,000.0,027.0,020.1,27.6,0000.4,0009.80,0004.91,0004.37
2024-03-08 01:38:00,SystemResetWarning,0824.3,5.00,000.00,018.4,017.6,000.0,027.0,020.1,27.6,0000.0,0009.23,0004.46,0003.99
2024-03-08 01:39:00,SystemResetWarning,0824.3,5.01,000.00,018.4,017.5,000.0,027.0,020.1,27.6,0000.0,0008.82,0004.15,0003.70
2024-03-08 01:40:00,SystemResetWarning,0824.3,5.01,000.00,018.4,017.5,000.0,027.0,020.0,27.5,0000.0,0008.85,0003.93,0003.48
2024-03-08 01:41:00,SystemResetWarning,0824.3,4.99,000.00,018.4,017.5,000.0,027.0,020.0,27.5,0000.0,0009.35,0003.70,0003.26
2024-03-08 01:42:00,SystemResetWarning,0824.4,5.00,000.00,018.3,017.5,000.0,027.0,020.0,27.5,0000.0,0009.17,0003.44,0002.95
2024-03-08 01:43:00,SystemResetWarning,0824.4,5.00,000.00,018.4,017.7,000.0,027.1,020.2,27.5,0000.0,0009.01,0003.30,0002.69
2024-03-08 01:44:00,SystemResetWarning,0824.4,5.02,000.00,018.6,018.6,000.0,027.2,020.7,27.2,0000.0,0008.58,0003.19,0002.53
2024-03-08 01:45:00,SystemResetWarning,0824.4,5.00,000.00,018.8,019.0,000.0,027.2,021.0,26.7,0000.0,0008.37,0003.14,0002.44
2024-03-08 01:46:00,SystemResetWarning,0824.4,4.99,000.00,018.8,018.9,000.0,027.1,020.9,26.6,0000.0,0007.97,0003.10,0002.40
2024-03-08 01:47:00,SystemResetWarning,0824.4,5.00,000.00,018.8,018.7,000.0,027.1,020.8,26.6,0000.0,0007.39,0003.11,0002.36
2024-03-08 01:48:00,SystemResetWarning,0824.4,5.01,000.00,018.8,018.6,000.0,027.1,020.7,26.5,0000.0,0007.42,0003.11,0002.34
2024-03-08 01:49:00,SystemResetWarning,0824.4,5.00,000.00,018.8,018.4,000.0,027.2,020.6,26.5,0000.0,0008.25,0003.11,0002.33
2024-03-08 01:50:00,SystemResetWarning,0824.4,5.01,000.00,018.8,018.3,000.0,027.2,020.5,26.5,0000.0,0008.45,0003.09,0002.31
2024-03-08 01:51:00,SystemResetWarning,0824.4,4.98,000.00,018.7,018.1,000.0,027.2,020.4,26.4,0000.0,0009.75,0003.06,0002.31
2024-03-08 01:52:00,SystemResetWarning,0824.4,5.00,000.00,018.7,018.0,000.0,027.2,020.4,26.4,0000.0,0009.01,0003.05,0002.34
2024-03-08 01:53:00,SystemResetWarning,0824.4,5.00,000.00,018.7,017.9,000.0,027.2,020.3,26.5,0000.0,0009.41,0003.11,0002.37
2024-03-08 01:54:00,SystemResetWarning,0824.4,5.01,000.00,018.7,017.8,000.0,027.2,020.3,26.4,0000.0,0009.93,0003.13,0002.39
2024-03-08 01:55:00,SystemResetWarning,0824.3,5.00,000.00,018.6,017.8,000.0,027.1,020.3,26.4,0000.0,0009.84,0003.14,0002.41
2024-03-08 01:56:00,SystemResetWarning,0824.4,4.98,000.00,018.6,017.7,000.0,027.1,020.3,26.5,0000.0,0010.28,0003.16,0002.44
2024-03-08 01:57:00,SystemResetWarning,0824.4,4.99,000.00,018.6,017.7,000.0,027.1,020.2,26.4,0000.0,0010.34,0003.21,0002.46
2024-03-08 01:58:00,SystemResetWarning,0824.4,5.01,000.00,018.6,017.6,000.0,027.1,020.2,26.4,0000.0,0010.41,0003.21,0002.49
2024-03-08 01:59:00,SystemResetWarning,0824.4,5.01,000.00,018.5,017.6,000.0,027.1,020.2,26.4,0000.0,0010.46,0003.21,0002.51
